STARLINK-3857, 52494

Orbit data source: Space-Track

STARLINK-3857, 52494 is a payload satellite owned by SpaceX/Seattle (US) in LEO that was launched on Fri, 06 May 2022 UTC via an FALCON 9 launch vehicle from the Air Force Eastern Test Range (AFETR). Payload-class satellites include a variety of spacecraft equipped with specific instruments for various scientific and technological missions. These include communications satellites like Starlink; space stations such as the ISS; scientific satellites like the Hubble; Earth observation satellites from companies like Planet Labs, Umbra, and HawkEye 360; GPS; miniature CubeSats for education and research; and military/defense satellites.

Loading next visibility...
Identifier
52494, 2022-049AV
Orbit
LEO
Country
Flag of USUS
Related business
Manufacturer
SpaceX/Seattle
Mission
Operational Commercial Communications
Bus & Motor
STARLINK, Unknown motor
Mass
297 kg wet, ~220 kg dry
Launch date (UTC)
2022-05-06 (4 years ago)
Launch vehicle
FALCON 9
Launch site
Air Force Eastern Test Range (AFETR)
Object type
Payload
Rocket body
Debris
Shape & HBR
Box + 1 Pan, 10.1 m
Radar Cross Section
13.562 m², Large (>1 m²)

Expand to show TLE details & history
Last TLE update: 2 days ago

TLE from 2 days ago
0 STARLINK-3857
1 52494U 22049AV  26171.41668980  .00042855  00000-0  20544-2 0  9991
2 52494  53.1610 307.5479 0000977  52.4597 107.5867 15.18517692  5781
Epoch: 2026-06-20T10:00Z
TLE epoch observation values (Epoch: 2026-06-20T10:00:01.998Z)
Latitude
15.85981°
Longitude
56.68811°
Altitude
510.736 km
Speed
7.611 km/s
True Right ascension
07h 41m 18s
True Declination
15° 45' 59"
Sunlit
Object was in daylight at epoch
Visualization orbit readout
Latitude
Unknown
Longitude
Unknown
Altitude
Unknown
Speed
Unknown
Apparent Right ascension
Unknown
Apparent Declination
Unknown
Sunlit
N/A
Visualization observer readout
Local Sidereal Time
21:51:19
Azimuth
Unknown
Elevation
Unknown
Doppler factor
Unknown
Orbital elements
Apogee altitude
511.248 km
Perigee altitude
509.902 km
Semi-major axis
6,888.712 km
Eccentricity
0.0001
Inclination
53.161°
RAAN
307.5479°
Arg. of periapsis
52.4597°
True anomaly
107.59737°
Mean anomaly
107.5867°
Eccentric anomaly
107.59204°
Mean motion
3.79609 °/min
Orbital period
94.83 mins
BSTAR
0.0020544
Loading maneuver chart data...
Computing Atmospheric mass density...

Documentation

Showing up to 5 results
|